Hourly Weather Sosnowiec

Today, 8 July, Wednesday

Time Temperature Precipitation Wind Pressure Humidity
00:00 +13°C° 0 mm 1 mps 738 mmHg 75%
01:00 +12°C° 0 mm 2 mps 738 mmHg 76%
02:00 +13°C° 0 mm 2 mps 738 mmHg 76%
03:00 +13°C° 0 mm 2 mps 738 mmHg 76%
04:00 +12°C° 0 mm 3 mps 737 mmHg 76%
05:00 +13°C° 0 mm 3 mps 737 mmHg 73%
06:00 +14°C° 0 mm 3 mps 737 mmHg 70%
07:00 +16°C° 0 mm 3 mps 737 mmHg 66%
08:00 +17°C° 0 mm 3 mps 737 mmHg 64%
09:00 +18°C° 0 mm 3 mps 737 mmHg 61%
10:00 +19°C° 0 mm 3 mps 737 mmHg 58%
11:00 +19°C° 0.2 mm 3 mps 737 mmHg 59%
12:00 +19°C° 0.2 mm 3 mps 737 mmHg 59%
13:00 +20°C° 0.2 mm 4 mps 737 mmHg 60%
14:00 +18°C° 0.2 mm 3 mps 737 mmHg 67%
15:00 +17°C° 0.2 mm 3 mps 737 mmHg 74%
16:00 +16°C° 0.2 mm 2 mps 737 mmHg 81%
17:00 +15°C° 1 mm 2 mps 737 mmHg 85%
18:00 +15°C° 1 mm 2 mps 737 mmHg 88%
19:00 +14°C° 1 mm 2 mps 737 mmHg 92%
20:00 +14°C° 0.9 mm 2 mps 737 mmHg 92%
21:00 +14°C° 0.9 mm 2 mps 737 mmHg 93%
22:00 +14°C° 0.9 mm 2 mps 737 mmHg 93%
23:00 +14°C° 0 mm 2 mps 737 mmHg 93%

Tomorrow, 9 July, Thursday

Time Temperature Precipitation Wind Pressure Humidity
00:00 +13°C° 0 mm 2 mps 738 mmHg 93%
01:00 +13°C° 0 mm 2 mps 738 mmHg 93%
02:00 +13°C° 0 mm 2 mps 738 mmHg 93%
03:00 +12°C° 0 mm 1 mps 738 mmHg 93%
04:00 +12°C° 0 mm 1 mps 738 mmHg 94%
05:00 +13°C° 0 mm 1 mps 738 mmHg 90%
06:00 +14°C° 0 mm 2 mps 738 mmHg 85%
07:00 +16°C° 0 mm 2 mps 738 mmHg 81%
08:00 +17°C° 0 mm 2 mps 739 mmHg 74%
09:00 +18°C° 0 mm 2 mps 739 mmHg 68%
10:00 +20°C° 0 mm 2 mps 739 mmHg 61%
11:00 +20°C° 0 mm 2 mps 739 mmHg 58%
12:00 +21°C° 0 mm 2 mps 739 mmHg 55%
13:00 +22°C° 0 mm 3 mps 739 mmHg 53%
14:00 +22°C° 0 mm 3 mps 738 mmHg 56%
15:00 +22°C° 0 mm 3 mps 738 mmHg 58%
16:00 +21°C° 0 mm 3 mps 738 mmHg 61%
17:00 +21°C° 0 mm 3 mps 737 mmHg 65%
18:00 +20°C° 0 mm 3 mps 737 mmHg 70%
19:00 +19°C° 0 mm 3 mps 737 mmHg 74%
20:00 +19°C° 0 mm 2 mps 737 mmHg 76%
21:00 +18°C° 0 mm 2 mps 737 mmHg 78%
22:00 +18°C° 0 mm 2 mps 737 mmHg 80%
23:00 +17°C° 0.1 mm 2 mps 737 mmHg 83%

Day after tomorrow, 10 July, Friday

Time Temperature Precipitation Wind Pressure Humidity
00:00 +17°C° 0.1 mm 2 mps 737 mmHg 86%
01:00 +17°C° 0.1 mm 2 mps 737 mmHg 89%
02:00 +17°C° 0.1 mm 2 mps 736 mmHg 89%
03:00 +17°C° 0.1 mm 2 mps 736 mmHg 89%
04:00 +17°C° 0.1 mm 2 mps 736 mmHg 89%
05:00 +18°C° 0 mm 3 mps 736 mmHg 84%
06:00 +20°C° 0 mm 3 mps 736 mmHg 80%
07:00 +21°C° 0 mm 4 mps 736 mmHg 75%
08:00 +23°C° 0 mm 4 mps 736 mmHg 68%
09:00 +26°C° 0 mm 5 mps 736 mmHg 62%
10:00 +28°C° 0 mm 5 mps 736 mmHg 55%
11:00 +28°C° 0 mm 6 mps 736 mmHg 52%
12:00 +29°C° 0 mm 6 mps 736 mmHg 48%
13:00 +30°C° 0 mm 6 mps 735 mmHg 45%
14:00 +30°C° 0 mm 6 mps 735 mmHg 46%
15:00 +30°C° 0 mm 5 mps 735 mmHg 46%
16:00 +30°C° 0 mm 5 mps 735 mmHg 47%
17:00 +29°C° 0 mm 4 mps 734 mmHg 52%
18:00 +28°C° 0 mm 4 mps 734 mmHg 56%
19:00 +26°C° 0 mm 3 mps 734 mmHg 61%
20:00 +25°C° 0 mm 3 mps 734 mmHg 64%
21:00 +24°C° 0 mm 2 mps 734 mmHg 68%
22:00 +23°C° 0 mm 2 mps 734 mmHg 71%
23:00 +22°C° 0.2 mm 1 mps 734 mmHg 76%

11 July, Saturday

Time Temperature Precipitation Wind Pressure Humidity
00:00 +21°C° 0.2 mm 1 mps 735 mmHg 81%
01:00 +20°C° 0.2 mm 1 mps 735 mmHg 86%
02:00 +20°C° 0.4 mm 1 mps 735 mmHg 88%
03:00 +20°C° 0.4 mm 1 mps 735 mmHg 89%
04:00 +19°C° 0.4 mm 1 mps 735 mmHg 91%
05:00 +20°C° 0.2 mm 1 mps 736 mmHg 88%
06:00 +19°C° 0.2 mm 2 mps 736 mmHg 85%
07:00 +19°C° 0.2 mm 2 mps 736 mmHg 82%
08:00 +19°C° 0.8 mm 2 mps 736 mmHg 85%
09:00 +18°C° 0.8 mm 3 mps 737 mmHg 88%
10:00 +18°C° 0.8 mm 3 mps 737 mmHg 90%
11:00 +17°C° 1.4 mm 3 mps 737 mmHg 90%
12:00 +17°C° 1.4 mm 4 mps 738 mmHg 90%
13:00 +15°C° 1.4 mm 4 mps 738 mmHg 90%
14:00 +15°C° 2.7 mm 4 mps 738 mmHg 90%
15:00 +14°C° 2.7 mm 3 mps 739 mmHg 91%
16:00 +14°C° 2.7 mm 3 mps 739 mmHg 91%
17:00 +15°C° 1.7 mm 2 mps 739 mmHg 91%
18:00 +15°C° 1.7 mm 1 mps 740 mmHg 92%
19:00 +14°C° 1.7 mm 1 mps 740 mmHg 93%
20:00 +14°C° 0.7 mm 1 mps 740 mmHg 92%
21:00 +14°C° 0.7 mm 1 mps 741 mmHg 92%
22:00 +14°C° 0.7 mm 1 mps 741 mmHg 91%
23:00 +14°C° 0.3 mm 1 mps 741 mmHg 90%

12 July, Sunday

Time Temperature Precipitation Wind Pressure Humidity
00:00 +14°C° 0.3 mm 1 mps 741 mmHg 89%
01:00 +14°C° 0.3 mm 1 mps 741 mmHg 88%
02:00 +13°C° 0 mm 1 mps 741 mmHg 88%
03:00 +12°C° 0 mm 2 mps 741 mmHg 88%
04:00 +12°C° 0 mm 2 mps 741 mmHg 88%
05:00 +13°C° 0 mm 2 mps 741 mmHg 85%
06:00 +14°C° 0 mm 2 mps 742 mmHg 81%
07:00 +14°C° 0 mm 3 mps 742 mmHg 78%
08:00 +16°C° 0.1 mm 3 mps 742 mmHg 72%
09:00 +18°C° 0.1 mm 3 mps 742 mmHg 66%
10:00 +19°C° 0.1 mm 4 mps 742 mmHg 59%
11:00 +19°C° 0 mm 4 mps 742 mmHg 56%
12:00 +20°C° 0 mm 4 mps 742 mmHg 52%
13:00 +21°C° 0 mm 4 mps 742 mmHg 49%
14:00 +21°C° 0 mm 4 mps 742 mmHg 49%
15:00 +21°C° 0 mm 4 mps 742 mmHg 49%
16:00 +20°C° 0 mm 4 mps 742 mmHg 49%
17:00 +19°C° 0 mm 3 mps 742 mmHg 54%
18:00 +18°C° 0 mm 3 mps 742 mmHg 59%
19:00 +17°C° 0 mm 2 mps 742 mmHg 64%
20:00 +16°C° 0 mm 2 mps 742 mmHg 67%
21:00 +15°C° 0 mm 2 mps 743 mmHg 70%
22:00 +14°C° 0 mm 1 mps 743 mmHg 73%
23:00 +13°C° 0 mm 1 mps 743 mmHg 74%

13 July, Monday

Time Temperature Precipitation Wind Pressure Humidity
00:00 +13°C° 0 mm 1 mps 743 mmHg 76%
01:00 +12°C° 0 mm 1 mps 743 mmHg 77%
02:00 +12°C° 0 mm 1 mps 742 mmHg 78%
03:00 +12°C° 0 mm 1 mps 742 mmHg 80%
04:00 +11°C° 0 mm 1 mps 742 mmHg 81%
05:00 +13°C° 0 mm 1 mps 742 mmHg 75%
06:00 +15°C° 0 mm 1 mps 742 mmHg 69%
07:00 +16°C° 0 mm 1 mps 742 mmHg 64%
08:00 +18°C° 0 mm 1 mps 742 mmHg 59%
09:00 +18°C° 0 mm 2 mps 742 mmHg 53%
10:00 +19°C° 0 mm 2 mps 742 mmHg 48%
11:00 +20°C° 0 mm 2 mps 742 mmHg 48%
12:00 +20°C° 0 mm 2 mps 742 mmHg 48%
13:00 +20°C° 0 mm 2 mps 741 mmHg 47%
14:00 +20°C° 0 mm 2 mps 741 mmHg 47%
15:00 +21°C° 0 mm 2 mps 741 mmHg 48%
16:00 +21°C° 0 mm 2 mps 740 mmHg 48%
17:00 +21°C° 0 mm 1 mps 740 mmHg 53%
18:00 +20°C° 0 mm 1 mps 740 mmHg 58%
19:00 +19°C° 0 mm 1 mps 740 mmHg 64%
20:00 +18°C° 0 mm 1 mps 740 mmHg 67%
21:00 +15°C° 0 mm 1 mps 740 mmHg 71%
22:00 +14°C° 0 mm 1 mps 740 mmHg 74%
23:00 +14°C° 0 mm 1 mps 740 mmHg 76%
Show more